Regional Weather Roundup
Issued by NWS

Home | Current Version | Previous Version | Text Only | Print | Product List | Glossary Off
Versions: 1 2 3 4 5 6 7 8 9 10 11 12 13 14 15 16 17 18 19 20 21 22 23 24 25 26 27 28 29 30 31 32 33 34 35 36 37 38 39 40 41 42 43 44 45 46 47 48 49 50

000
ASUS43 KMKX 192321
RWRWI

WISCONSIN REGIONAL WEATHER ROUNDUP
NATIONAL WEATHER SERVICE MILWAUKEE/SULLIVAN WI
600 PM CDT SUN OCT 19 2014

NOTE: "FAIR" INDICATES FEW OR NO CLOUDS BELOW 12,000 FEET WITH NO
SIGNIFICANT WEATHER AND/OR OBSTRUCTIONS TO VISIBILITY.

WIZ001-002-006>008-014>016-023>028-200000-
NORTHWEST WISCONSIN

CITY           SKY/WX    TMP DP  RH WIND       PRES   REMARKS
SUPERIOR ARPT  CLEAR     61  44  54 SW7       29.72R
ASHLAND        CLEAR     57  43  59 SW6       29.74R
HAYWARD        CLEAR     59  43  55 SW8       29.76R
SIREN          CLEAR     60  43  53 W3        29.77R
CUMBERLAND     CLEAR     55  43  62 SW5       29.78R
RICE LAKE      CLEAR     59  43  56 SW6       29.79R
CHETEK         CLEAR     58  45  62 SW3       29.78R
LADYSMITH      CLEAR     56  44  65 CALM      29.79R
EAU CLAIRE     PTCLDY    60  45  57 SW6       29.78S
MENOMONIE      PTCLDY    61  45  54 SW6       29.78S
NEW RICHMOND   CLEAR     61  44  53 SW3       29.78R
OSCEOLA        CLEAR     62  46  55 SW3       29.79S
$$

WIZ003>005-009-010-017-018-200000-
NORTH CENTRAL WISCONSIN

CITY           SKY/WX    TMP DP  RH WIND       PRES   REMARKS
MANITOWISH WTR PTCLDY    51  43  73 SW7       29.76R
ARBOR VITAE    PTCLDY    52  44  74 SW5       29.76S
WOODRUFF       PTCLDY    52  44  74 SW5       29.76S
RHINELANDER    PTCLDY    51  42  71 SW8       29.78S
EAGLE RIVER    PTCLDY    50  40  68 SW8G18    29.75S
LAND O LAKES   MOCLDY    51  42  71 SW7       29.76S
PHILLIPS       PTCLDY    54  43  67 SW10G16   29.77R
TOMAHAWK       MOCLDY    52  42  71 CALM      29.78S
MEDFORD        PTCLDY    51  44  76 S5        29.78F
MERRILL        MOCLDY    53  44  72 S7        29.79F
$$

WIZ029-030-035-036-043>047-200000-
CENTRAL WISCONSIN

CITY           SKY/WX    TMP DP  RH WIND       PRES   REMARKS
WAUSAU         MOCLDY    53  43  68 S6        29.79F
MOSINEE        MOCLDY    48  45  87 S7        29.82F
MARSHFIELD     MOCLDY    56  44  64 SW10      29.80F
STEVENS POINT  LGT RAIN  52  43  72 SW8       29.82F
WAUPACA        MOCLDY    56  44  64 S9        29.83F
WAUTOMA        CLOUDY    55  43  64 S8        29.85F
WISC RAPIDS    MOCLDY    57  44  62 SW12      29.83F
CAMP DOUGLAS   PTCLDY    58  46  63 SW9       29.84F
$$

WIZ011>013-019>022-031-037>040-048>050-200000-
NORTHEAST WISCONSIN

CITY           SKY/WX    TMP DP  RH WIND       PRES   REMARKS
ANTIGO         PTCLDY    49  42  78 SW10      29.80F
SHAWANO        PTCLDY    55  42  61 SW6       29.82S
OCONTO         CLOUDY    53  42  68 SW6       29.82S
STURGEON BAY   CLOUDY    50  43  76 S8        29.84R
GREEN BAY      MOCLDY    54  43  66 SW13G20   29.84S
MANITOWOC      LGT RAIN  54  42  64 SW13      29.86F
APPLETON       MOCLDY    52  43  71 SW17      29.84S
CLINTONVILLE   PTCLDY    54  41  62 SW10      29.83S
OSHKOSH        CLOUDY    54  42  64 SW14G20   29.86R
$$

WIZ032>034-041-042-053>061-200000-
SOUTHWEST WISCONSIN

CITY           SKY/WX    TMP DP  RH WIND       PRES   REMARKS
LA CROSSE      PTCLDY    62  45  53 S8        29.81F
SPARTA         PTCLDY    58  43  56 SW6       29.84F
VIROQUA        PTCLDY    56  44  64 S8        29.86F
BOSCOBEL       CLEAR     60  43  53 SW13      29.89R
PRAIRIE DU CHI PTCLDY    60  42  51 S8        29.88S
PLATTEVILLE    CLEAR     56  44  63 S8        29.91F
$$

WIZ056-057-062-063-064-067-068-200000-
SOUTH CENTRAL WISCONSIN

CITY           SKY/WX    TMP DP  RH WIND       PRES   REMARKS
REEDSBURG      PTCLDY    56  44  64 SW10G17   29.87S
BARABOO/DELLS  PTCLDY    55  41  58 SW13G20   29.87F
LONE ROCK      PTCLDY    61  42  49 SW8       29.89R
MINERAL POINT  CLEAR     55  41  58 SW9       29.90S
MADISON        MOCLDY    56  42  59 S13       29.89F
MIDDLETON      CLEAR     57  40  52 SW10G17   29.89S
WATERTOWN      PTCLDY    53  40  63 S9        29.89F
MONROE         PTCLDY    54  41  62 S14       29.91F
JANESVILLE     CLEAR     57  39  51 SW10      29.92F
$$

WIZ051-052-058>065-066-070>072-200000-
SOUTHEAST WISCONSIN

CITY           SKY/WX    TMP DP  RH WIND       PRES   REMARKS
MILWAUKEE      MOCLDY    54  40  59 SW15G23   29.93F
WAUKESHA       PTCLDY    52  39  62 SW12G23   29.93F
MILWAUKEE/TIMM NOT AVBL
RACINE         MOCLDY    53  40  61 SW13      29.95F
BURLINGTON     PTCLDY    51  41  68 S10G16    29.93F
KENOSHA        MOCLDY    52  41  66 S14       29.95F
FOND DU LAC    PTCLDY    54  40  59 SW10      29.87S
SHEBOYGAN      MOCLDY    53  40  61 S14G24    29.87F
WEST BEND      MOCLDY    52  37  58 S13       29.88F
JUNEAU         PTCLDY    53  40  62 S14G21    29.90S
$$

LSZ147-162-200000-
LAKE SUPERIOR

STATION/POSITION TIME  TEMP    WIND        PRES    WAVE
                       AIR SEA DIR/SP/G            HT/PER
                 (UTC) (F)     (DEG/KT/KT) (MB)    (FT/S)
W MID LAKE BUOY  2250   47 46   CALM  /  2 1007.0R   1/ 4
DEVILS ISLAND    2300   53     210/ 10/ 11 1006.5R
PORT WING        2200   59     250/  7/  9 1006.4S
SAXON HARBOR     2200   61     210/  6/ 13 1006.4
$$

LMZ867-665-643>646-200000-
LAKE MICHIGAN

STATION/POSITION TIME  TEMP    WIND        PRES    WAVE
                       AIR SEA DIR/SP/G            HT/PER
                 (UTC) (F)     (DEG/KT/KT) (MB)    (FT/S)
CHAMBERS ISLAND  2200   51     150/  5/ 15 1010.2F
N MID LAKE BUOY  2250   50 51  200/ 25/ 29 1010.4S   7/ 6
NORTHPORT PIER   2200   51     160/ 10/ 15 1010.5F
KEWAUNEE LAKESHO 2300   51     190/ 15/ 19 1009.8F
SHEBOYGAN LAKESH 2300   53 51  190/ 17/ 18 1011.9F
PORT WASHINGTON  2240   56     210/  7/ 12 1013.2F
ATWATER BUOY     2300   55     190/ 16/ 17 1014.1F
MILWAUKEE LAKESH 2300   55     210/ 17/ 21   N/A
S MID LAKE BUOY  2250   54 55  200/ 21/ 25 1014.5F   4/ 5
KENOSHA   LAKESH 2300   53     200/ 12/ 15 1014.2F
$$

TC  - TEMPERATURE IN CELSIUS
VSB - VISIBILITY IN STATUTE MILES
WCI - WIND CHILL INDEX
HX  - HEAT INDEX




USA.gov is the U.S. government's official web portal to all federal, state and local government web resources and services.